Wind_Speed
21 22 22 23 23 23 23 23 23 22 21 21 21 21 22 23 25 27 28 29 30 31 32 32 33 34 34 34 34 35 36 37 37 37 37 37 37 38 38 38 38 39 39 38
22 22 23 23 23 23 23 23 23 22 21 22 22 22 22 22 24 26 28 29 30 30 31 31 32 32 33 34 34 34 35 36 36 37 36 37 38 38 38 38 37 37 37 37
21 22 22 22 23 22 22 22 22 21 20 21 22 22 22 23 24 26 28 29 30 30 30 31 32 32 31 32 33 34 34 35 36 36 36 35 36 36 37 38 37 37 37 37
22 22 22 22 22 22 21 21 21 21 20 19 21 22 21 22 23 24 25 27 28 29 29 29 30 31 31 32 33 34 34 35 35 35 35 34 34 35 35 36 37 37 37 37
22 22 22 22 21 21 21 20 21 21 20 20 21 22 21 22 22 23 24 25 26 26 27 28 29 30 30 31 31 32 32 34 34 35 34 33 33 34 34 36 37 38 39 39
22 21 21 21 20 20 20 19 20 20 21 21 22 23 21 21 22 22 22 23 24 24 25 27 28 28 29 30 30 31 32 32 32 34 35 34 34 34 34 36 37 38 38 39
21 20 20 20 19 19 19 19 19 19 21 21 22 23 22 21 21 21 22 23 24 25 25 25 26 27 28 29 29 29 31 31 32 32 33 33 32 32 34 35 36 37 37 38
20 18 19 19 18 19 18 18 19 20 21 21 21 22 21 21 21 22 22 22 23 25 25 25 27 28 28 28 28 29 29 29 30 31 31 32 32 32 33 34 34 36 36 37
20 19 19 18 18 19 19 18 20 20 21 22 22 22 21 20 22 22 22 23 24 25 26 26 27 27 27 28 29 28 28 29 29 29 29 31 31 32 32 31 33 34 35 36
20 19 19 19 19 19 19 19 20 20 21 23 22 21 21 20 21 21 22 22 23 24 26 26 26 27 26 27 28 27 28 27 27 27 28 29 30 30 30 30 31 32 33 34
20 19 20 20 19 20 19 20 20 20 21 22 22 20 20 21 21 21 21 21 21 22 23 25 25 26 26 26 26 26 26 26 27 27 28 29 29 31 31 30 31 31 31 32
20 21 21 20 20 20 20 20 20 20 20 21 22 20 19 20 20 21 21 22 21 22 23 24 24 24 24 25 25 25 25 24 26 27 29 29 30 31 32 32 30 30 31 31
21 22 22 21 20 20 20 20 20 20 21 21 21 19 19 19 19 20 20 21 22 22 23 24 24 24 24 25 26 25 24 24 25 26 27 28 29 30 30 31 31 31 30 30
22 22 22 22 21 21 20 19 19 20 21 21 20 20 19 19 20 20 20 21 21 22 22 22 23 24 25 26 26 25 25 25 25 25 26 27 28 28 27 29 30 30 30 29
23 23 23 22 22 21 21 21 21 21 22 22 21 20 19 20 20 20 21 21 21 21 22 23 24 24 24 24 25 24 24 25 24 25 26 27 27 27 27 28 29 29 29 30
24 24 23 23 23 22 22 22 22 22 22 22 21 20 20 20 20 20 21 21 21 22 22 23 24 23 23 23 24 24 25 25 26 26 26 26 25 25 25 26 27 28 28 29
25 25 25 24 24 25 24 23 23 23 23 23 22 21 21 21 21 21 21 21 21 22 24 24 24 24 23 23 24 24 24 25 26 26 26 25 25 25 25 25 26 28 28 28
25 25 25 25 26 26 24 24 23 24 23 24 23 23 23 23 23 23 23 22 23 23 23 24 25 25 24 24 24 24 23 24 25 25 25 25 25 26 26 26 26 26 27 27
24 24 25 26 26 25 24 23 24 24 23 24 24 24 24 24 24 24 24 24 23 23 23 23 24 24 24 24 23 23 23 22 22 23 24 25 25 26 26 26 26 27 28 28
24 25 26 26 26 26 24 24 25 25 24 25 25 24 24 24 24 23 23 23 23 23 23 22 23 24 23 23 23 23 23 23 23 23 24 24 24 25 25 25 25 26 27 27
24 25 25 26 26 25 25 25 25 25 25 25 24 24 24 24 24 23 23 23 23 24 24 23 24 24 23 22 23 23 23 24 24 24 24 24 25 25 25 26 26 26 26 27
24 24 23 23 24 24 24 24 24 25 25 25 25 25 25 25 25 24 24 24 23 24 24 24 25 25 24 24 24 24 24 24 25 26 26 26 26 26 26 26 26 27 27 27
23 23 23 22 23 23 23 23 24 25 25 25 25 25 26 25 25 25 24 24 24 24 24 25 25 26 26 26 27 26 25 25 25 26 26 27 27 28 27 27 27 28 28 28
23 23 22 22 22 22 22 23 23 24 24 25 25 26 26 26 26 25 25 25 25 25 25 25 26 26 26 27 27 27 26 26 26 26 27 27 28 29 29 28 28 28 28 28
22 22 22 22 21 21 21 22 23 24 24 25 26 26 26 26 26 25 25 25 25 25 25 26 26 26 26 27 27 28 28 28 28 28 28 29 29 30 30 29 29 29 29 30
22 22 22 22 22 23 22 22 23 24 24 25 26 26 27 27 27 26 26 26 26 26 26 26 26 25 26 26 27 28 29 28 28 28 29 29 29 30 29 29 29 30 30 29
Wind_Direction
299 299 301 302 303 299 294 291 289 285 278 276 271 265 261 260 256 254 250 251 253 253 252 252 252 251 250 251 253 255 255 256 256 260 262 261 260 259 259 257 256 258 259 258
300 301 303 302 304 301 294 292 290 285 278 277 275 268 266 263 258 254 251 253 255 254 255 255 253 252 251 252 255 257 258 258 258 260 263 262 260 258 258 256 256 256 256 256
301 304 304 303 303 300 295 293 290 285 282 279 277 272 268 264 262 258 256 255 256 256 256 255 253 253 254 256 256 258 259 260 258 259 260 260 259 258 256 256 256 256 255 255
302 303 303 303 302 301 295 292 289 285 285 282 277 277 270 269 267 264 261 260 258 259 257 256 254 254 255 257 258 259 260 260 259 259 257 258 259 258 258 258 257 257 254 253
303 302 303 302 301 299 297 292 288 289 289 285 281 279 277 273 271 269 265 263 261 262 260 258 257 256 259 261 260 260 261 261 261 258 255 256 258 259 259 257 257 256 254 253
303 302 303 303 301 299 297 292 290 290 291 289 285 283 280 276 274 272 270 268 264 263 259 258 259 260 263 264 263 263 263 262 262 258 256 258 258 259 258 257 258 256 254 252
302 302 301 302 303 300 297 296 295 293 295 294 291 287 283 279 276 273 273 270 265 262 260 260 263 265 265 266 264 268 264 261 260 259 258 260 260 259 258 257 257 256 253 252
302 301 301 303 304 303 299 296 296 296 297 298 294 293 289 283 278 274 271 270 266 263 263 264 266 267 268 267 268 271 267 263 259 258 259 259 260 260 260 258 257 256 255 253
301 299 300 302 304 303 300 298 297 294 296 298 297 297 294 288 280 274 269 267 266 265 265 266 267 268 268 269 269 270 268 263 261 262 261 259 260 261 260 259 258 256 255 254
299 300 299 300 300 299 298 299 299 296 297 297 298 299 298 291 283 280 275 270 269 267 265 266 267 269 270 270 269 269 267 263 262 262 262 260 259 259 257 257 257 257 256 255
296 299 301 299 298 299 297 296 298 298 298 298 298 298 297 293 288 282 278 276 274 271 268 266 269 272 271 270 271 270 268 264 262 263 264 264 262 260 256 258 258 257 257 256
294 295 298 297 296 296 296 296 296 296 298 298 298 301 298 291 287 282 278 278 276 276 274 272 271 272 271 271 271 269 266 264 265 264 264 266 266 263 260 259 258 258 258 259
294 294 296 296 295 296 297 298 297 295 295 295 296 299 297 292 288 284 280 278 276 275 274 273 272 273 273 273 272 268 265 265 266 267 267 266 267 267 263 259 257 257 258 259
292 293 295 297 299 298 296 295 296 294 294 295 294 296 294 292 290 286 282 279 278 277 277 275 275 276 275 274 271 268 266 267 267 268 268 269 269 267 264 260 258 257 258 259
291 291 292 293 294 295 295 292 291 293 295 294 294 293 293 293 293 289 285 282 280 280 278 276 277 279 277 276 271 269 268 266 266 268 268 270 269 266 265 262 258 259 261 261
288 290 290 288 288 290 291 291 290 292 294 294 293 293 293 293 292 290 287 283 282 280 280 281 280 280 278 277 273 270 269 267 267 269 270 271 268 266 264 262 261 260 261 263
287 288 288 287 286 285 289 292 291 292 294 294 294 294 292 290 291 291 289 287 283 281 283 281 282 281 281 278 274 272 270 269 270 271 269 269 268 265 263 264 264 264 264 264
286 286 287 288 288 288 293 291 291 291 292 292 292 290 290 288 288 289 288 286 283 283 283 280 280 281 279 277 274 274 272 271 270 268 266 267 266 265 265 266 266 266 267 267
286 286 287 288 290 290 291 292 291 291 291 291 291 288 286 286 287 286 285 283 283 283 283 283 282 281 279 277 275 275 273 272 272 271 268 267 265 264 265 266 266 266 267 268
286 286 286 288 289 292 292 291 290 291 292 292 290 288 286 286 286 285 284 283 281 281 282 283 282 281 279 279 277 276 274 272 275 274 271 268 266 264 264 265 266 266 267 269
287 287 287 287 288 291 294 293 292 292 294 293 291 287 286 286 287 285 284 283 281 280 280 280 282 281 279 278 277 278 277 275 275 275 273 268 264 263 264 266 266 267 268 269
287 288 289 289 290 292 293 293 293 293 293 293 292 287 286 286 286 285 285 283 280 278 277 279 280 279 278 277 278 278 278 278 277 275 273 270 266 263 264 266 266 268 270 273
286 288 290 291 293 294 292 292 293 292 291 291 290 289 286 286 287 286 285 283 280 277 277 279 279 278 277 276 278 278 278 278 278 276 275 271 267 266 267 268 269 271 274 275
285 286 288 290 293 294 294 293 292 292 291 290 290 290 288 286 286 285 284 283 281 277 278 280 280 279 277 277 279 279 278 277 277 278 276 273 269 267 268 268 270 272 273 273
286 287 289 291 292 293 295 293 292 293 292 290 289 289 288 286 285 284 284 283 281 279 279 281 280 280 278 278 278 279 279 279 279 279 278 275 271 268 268 268 270 273 274 274
285 288 290 291 292 293 294 294 295 296 296 295 292 289 288 287 285 283 283 283 282 281 280 280 279 279 280 279 279 281 281 280 280 279 278 276 274 270 268 268 270 271 272 273
Height
5708 5707 5704 5701 5698 5695 5693 5691 5689 5688 5685 5684 5684 5684 5685 5685 5685 5686 5687 5689 5691 5692 5694 5696 5698 5700 5703 5705 5707 5708 5710 5712 5713 5715 5716 5717 5717 5719 5720 5721 5723 5724 5726 5728
5705 5703 5700 5697 5694 5691 5688 5686 5685 5684 5681 5680 5679 5680 5680 5680 5680 5681 5682 5683 5684 5685 5687 5689 5691 5692 5695 5697 5699 5700 5701 5703 5704 5705 5706 5707 5708 5709 5711 5712 5713 5714 5716 5718
5701 5699 5695 5693 5690 5687 5684 5682 5680 5679 5678 5676 5675 5675 5676 5675 5675 5676 5676 5676 5677 5679 5681 5682 5684 5685 5687 5689 5691 5692 5693 5694 5695 5696 5698 5698 5699 5699 5701 5702 5704 5706 5708 5710
5696 5694 5691 5688 5686 5683 5681 5679 5677 5675 5673 5672 5671 5670 5671 5671 5671 5670 5671 5671 5671 5672 5673 5675 5677 5678 5680 5681 5682 5683 5684 5685 5686 5687 5688 5689 5690 5691 5692 5693 5695 5697 5699 5701
5692 5690 5687 5684 5682 5679 5677 5675 5673 5672 5669 5668 5667 5666 5667 5666 5666 5666 5666 5666 5665 5666 5667 5669 5670 5671 5673 5673 5675 5675 5676 5676 5677 5678 5679 5681 5682 5682 5684 5685 5686 5688 5691 5693
5688 5685 5683 5680 5677 5675 5672 5671 5669 5667 5666 5665 5664 5662 5662 5662 5661 5661 5660 5660 5659 5660 5662 5662 5663 5664 5666 5667 5667 5668 5668 5668 5669 5670 5671 5672 5673 5674 5675 5677 5678 5680 5682 5685
5684 5682 5679 5676 5674 5671 5669 5668 5665 5663 5661 5661 5660 5657 5658 5657 5657 5656 5655 5654 5654 5655 5656 5657 5658 5658 5659 5660 5660 5660 5660 5660 5661 5662 5663 5664 5665 5666 5667 5669 5670 5672 5674 5677
5680 5678 5675 5673 5670 5668 5665 5664 5662 5659 5657 5657 5656 5654 5655 5653 5651 5650 5650 5649 5650 5650 5651 5652 5652 5652 5652 5652 5653 5653 5652 5653 5653 5654 5656 5657 5657 5658 5659 5661 5662 5664 5666 5668
5675 5674 5672 5669 5667 5665 5662 5660 5658 5656 5653 5652 5651 5650 5649 5647 5646 5645 5645 5645 5645 5645 5646 5646 5646 5646 5646 5646 5646 5645 5645 5646 5647 5648 5648 5650 5650 5651 5652 5653 5654 5656 5658 5660
5671 5670 5668 5666 5664 5661 5659 5657 5655 5652 5649 5647 5646 5645 5645 5642 5641 5640 5640 5640 5639 5639 5639 5639 5640 5640 5640 5639 5639 5639 5639 5639 5640 5641 5641 5642 5644 5644 5645 5646 5647 5649 5650 5652
5667 5666 5664 5662 5660 5658 5656 5654 5651 5648 5646 5644 5641 5644 5640 5638 5637 5636 5636 5635 5634 5634 5634 5634 5634 5634 5634 5633 5633 5633 5633 5634 5634 5635 5635 5636 5637 5637 5638 5639 5640 5641 5643 5644
5663 5661 5660 5659 5657 5654 5652 5650 5647 5646 5643 5641 5638 5641 5636 5634 5632 5631 5631 5630 5629 5628 5628 5628 5628 5628 5628 5627 5627 5627 5628 5628 5628 5629 5629 5630 5630 5631 5632 5633 5634 5635 5636 5637
5658 5656 5655 5654 5654 5651 5648 5646 5643 5641 5639 5637 5635 5637 5632 5630 5628 5627 5626 5625 5624 5623 5623 5622 5622 5622 5622 5621 5621 5621 5622 5622 5622 5622 5622 5623 5623 5624 5624 5625 5627 5628 5629 5630
5653 5652 5651 5650 5647 5645 5643 5642 5639 5637 5635 5633 5632 5631 5630 5626 5624 5623 5622 5620 5619 5618 5618 5617 5617 5617 5616 5615 5615 5615 5616 5616 5616 5616 5616 5616 5616 5616 5617 5618 5619 5620 5622 5623
5648 5647 5646 5644 5642 5640 5639 5637 5635 5633 5631 5629 5627 5626 5625 5622 5620 5619 5617 5615 5614 5613 5613 5612 5611 5611 5610 5610 5610 5610 5610 5610 5610 5610 5609 5609 5609 5609 5609 5610 5612 5613 5614 5615
5643 5642 5640 5640 5637 5635 5634 5632 5630 5628 5626 5624 5622 5621 5620 5618 5616 5614 5612 5611 5610 5609 5608 5607 5606 5606 5605 5604 5604 5604 5603 5603 5603 5603 5602 5602 5602 5602 5603 5604 5605 5606 5607 5608
5637 5636 5634 5633 5631 5630 5629 5628 5625 5623 5621 5619 5617 5617 5614 5613 5611 5609 5607 5606 5605 5604 5603 5602 5601 5600 5599 5598 5598 5597 5597 5597 5596 5595 5595 5595 5595 5595 5596 5597 5598 5599 5600 5600
5631 5629 5627 5626 5626 5624 5627 5622 5620 5618 5617 5614 5612 5610 5608 5607 5605 5603 5602 5601 5599 5598 5597 5596 5595 5594 5593 5592 5591 5591 5590 5590 5589 5588 5588 5588 5588 5588 5589 5590 5591 5592 5592 5593
5625 5623 5621 5619 5617 5617 5619 5616 5613 5611 5611 5609 5606 5604 5602 5600 5599 5599 5597 5595 5593 5592 5591 5590 5589 5588 5587 5586 5585 5584 5584 5583 5583 5582 5582 5581 5581 5582 5582 5583 5584 5584 5585 5586
5619 5617 5616 5613 5611 5611 5613 5610 5606 5605 5604 5603 5599 5597 5596 5594 5594 5594 5591 5589 5587 5586 5585 5584 5583 5582 5581 5580 5579 5578 5577 5577 5576 5576 5575 5575 5575 5575 5575 5576 5577 5577 5578 5579
5613 5610 5609 5607 5604 5605 5606 5603 5600 5599 5598 5595 5592 5591 5589 5588 5587 5586 5584 5583 5581 5580 5579 5578 5577 5576 5575 5574 5573 5572 5571 5570 5569 5569 5568 5568 5568 5568 5569 5569 5569 5570 5570 5571
5606 5604 5603 5600 5599 5601 5598 5596 5594 5592 5590 5588 5586 5585 5583 5582 5580 5579 5578 5576 5575 5574 5573 5572 5571 5570 5569 5568 5567 5566 5565 5564 5563 5562 5561 5561 5561 5561 5561 5562 5562 5563 5563 5563
5600 5599 5597 5596 5596 5594 5591 5589 5587 5585 5584 5582 5580 5579 5577 5576 5574 5573 5571 5570 5569 5567 5567 5566 5564 5563 5562 5561 5560 5559 5558 5557 5556 5555 5554 5553 5554 5554 5554 5554 5555 5555 5555 5555
5594 5592 5590 5589 5589 5587 5585 5582 5581 5579 5577 5575 5574 5572 5570 5569 5568 5566 5565 5563 5562 5561 5560 5559 5558 5556 5556 5555 5553 5552 5551 5550 5549 5548 5547 5546 5546 5546 5546 5546 5547 5547 5547 5547
5587 5585 5584 5583 5583 5580 5579 5577 5575 5573 5571 5569 5567 5565 5564 5562 5561 5559 5558 5556 5555 5553 5553 5551 5550 5549 5548 5547 5546 5545 5544 5543 5542 5540 5539 5538 5538 5538 5538 5538 5538 5538 5538 5538
5582 5581 5579 5578 5576 5574 5573 5571 5569 5567 5565 5563 5561 5559 5557 5555 5554 5552 5551 5549 5548 5546 5545 5544 5543 5542 5541 5540 5538 5537 5536 5534 5533 5532 5531 5530 5530 5529 5529 5529 5530 5529 5530 5529